[[{"header":{"parameterUnit":"m.s-1","parameterCategory":1,"la1":30.2992,"la2":30.254,"lo1":-89.0895,"lo2":-89.0443,"dy":0.0025,"dx":0.0025,"nx":19,"ny":19,"refTime":"2026-05-02T03:00:00:Z","depth":0,"parameterNumber":2,"parameterNumberName":"U-component_of_WINDS"},"data":[0,0,0,-0.4888,-0.4893,-0.5137,-0.5138,-0.5457,-0.546,0,0,0,0,0,0,0,0,0,0,0,-0.4817,-0.4819,-0.4888,-0.4894,-0.5137,-0.5138,-0.5456,-0.546,0,0,0,0,0,0,0,0,0,0,0,-0.4816,-0.4819,-0.4822,-0.4895,-0.5136,-0.5138,-0.5456,-0.527,0,0,0,0,0,0,0,0,0,0,-0.5033,-0.4968,-0.4818,-0.4822,-0.4896,-0.5136,-0.5138,-0.5261,-0.5282,-0.5349,0,-0.5406,0,-0.5438,-0.5481,-0.5482,0,0,0,-0.4894,-0.4951,-0.5015,-0.4822,-0.4898,-0.5136,-0.5027,-0.5272,-0.5296,-0.5376,-0.541,-0.5422,-0.5443,-0.5483,-0.5485,-0.5867,-0.5868,0,0,-0.488,-0.4863,-0.4998,-0.503,-0.4989,-0.5019,-0.5034,-0.5286,-0.5324,-0.5412,-0.543,-0.5448,-0.5485,-0.5488,-0.5865,-0.5867,0,0,0,-0.4842,-0.4853,-0.4911,-0.5017,-0.506,-0.5026,-0.5044,-0.5313,-0.5333,-0.5433,-0.5452,-0.5487,-0.5491,-0.5863,-0.5866,-0.5939,0,0,0,-0.4834,-0.4831,-0.4905,-0.4897,-0.5055,-0.5189,-0.5065,-0.5315,-0.5344,-0.545,-0.5487,-0.5494,-0.5861,-0.5864,-0.5933,-0.5979,0,0,0,-0.4801,-0.4827,-0.4862,-0.4896,-0.4999,-0.5185,-0.5219,-0.5322,-0.5356,-0.5483,-0.5495,-0.586,-0.5864,-0.5927,-0.597,-0.6078,0,0,0,-0.4762,-0.4924,-0.4863,-0.5051,-0.4997,-0.5226,-0.5218,-0.539,-0.5507,-0.5489,-0.5861,-0.5866,-0.5926,-0.5964,-0.6071,-0.6169,-0.6206,0,0,-0.4957,-0.4946,-0.5058,-0.5011,-0.5247,-0.519,-0.5438,-0.5563,-0.5591,-0.5774,-0.5784,-0.5935,-0.5969,-0.6076,-0.6412,-0.6441,0,0,0,-0.5114,-0.5195,-0.5261,-0.537,-0.5467,-0.5556,-0.5643,-0.569,-0.5845,-0.568,-0.6001,-0.6022,-0.6086,-0.6133,-0.6158,-0.6217,-0.5885,-0.5885,-0.5884,-0.5369,-0.5394,-0.5583,-0.5639,-0.5745,-0.5833,-0.5923,-0.6001,-0.5997,-0.6072,-0.6129,-0.6329,-0.6383,-0.6402,-0.6463,-0.6177,-0.6178,-0.6178,-0.6178,-0.566,-0.5781,-0.577,-0.5949,-0.5977,-0.6129,-0.622,-0.6212,-0.6361,-0.6288,-0.6346,-0.6268,-0.6434,-0.6488,-0.6184,-0.6183,-0.6182,-0.6182,-0.6181,-0.5835,-0.5897,-0.5948,-0.611,-0.6231,-0.6282,-0.6425,-0.6444,-0.6463,-0.652,-0.6585,-0.6583,-0.659,-0.6548,-0.6548,-0.6549,-0.655,-0.655,-0.6551,-0.5998,-0.6052,-0.6169,-0.6285,-0.6358,-0.6458,-0.6547,-0.6621,-0.6709,-0.6712,-0.6713,-0.6705,-0.6442,-0.6379,-0.6562,-0.656,-0.6558,-0.6557,-0.6557,-0.6294,-0.623,-0.641,-0.6483,-0.6622,-0.6745,-0.6764,-0.6914,-0.6978,-0.7049,-0.7027,-0.6827,-0.682,-0.68,-0.6749,-0.7017,-0.7017,-0.7017,-0.7017,-0.6446,-0.6441,-0.6631,-0.6748,-0.6864,-0.6901,-0.7109,-0.718,-0.7245,-0.7287,-0.7249,-0.718,-0.7159,-0.7165,-0.7137,-0.709,-0.7438,-0.7439,-0.7439,-0.6632,-0.664,-0.6812,-0.6871,-0.6981,-0.7076,-0.7273,-0.7411,-0.747,-0.7457,-0.7321,-0.7304,-0.7192,-0.7154,-0.7144,-0.71,-0.7013,0,0]},{"header":{"parameterUnit":"m.s-1","parameterCategory":1,"la1":30.2992,"la2":30.254,"lo1":-89.0895,"lo2":-89.0443,"dy":0.0025,"dx":0.0025,"nx":19,"ny":19,"refTime":"2026-05-02T03:00:00:Z","depth":0,"parameterNumber":3,"parameterNumberName":"V-component_of_WINDS"},"data":[0,0,0,-5.0552,-5.0559,-5.0866,-5.0867,-5.1274,-5.1278,0,0,0,0,0,0,0,0,0,0,0,-5.0472,-5.0475,-5.0552,-5.056,-5.0866,-5.0867,-5.1273,-5.1278,0,0,0,0,0,0,0,0,0,0,0,-5.0471,-5.0475,-5.0479,-5.0561,-5.0865,-5.0867,-5.1272,-5.1035,0,0,0,0,0,0,0,0,0,0,-5.0735,-5.0672,-5.0474,-5.0479,-5.0563,-5.0865,-5.0867,-5.1024,-5.105,-5.1142,0,-5.1228,0,-5.1259,-5.1306,-5.1308,0,0,0,-5.0552,-5.065,-5.0723,-5.0479,-5.0566,-5.0865,-5.0725,-5.1038,-5.1068,-5.1177,-5.1233,-5.1248,-5.1266,-5.1309,-5.1311,-5.1872,-5.1875,0,0,-5.0535,-5.0533,-5.0703,-5.0743,-5.0698,-5.0716,-5.0735,-5.1056,-5.1117,-5.1235,-5.1257,-5.1273,-5.1312,-5.1315,-5.1869,-5.1873,0,0,0,-5.0492,-5.0522,-5.0586,-5.0727,-5.0781,-5.0725,-5.0747,-5.1103,-5.1124,-5.1262,-5.1278,-5.1314,-5.1319,-5.1866,-5.1871,-5.202,0,0,0,-5.0481,-5.0496,-5.0579,-5.0581,-5.0775,-5.0946,-5.0786,-5.1102,-5.1138,-5.1276,-5.1314,-5.1323,-5.1863,-5.1868,-5.2009,-5.2092,0,0,0,-5.0449,-5.0492,-5.0541,-5.0581,-5.0712,-5.0941,-5.098,-5.1109,-5.1149,-5.1308,-5.1325,-5.186,-5.1867,-5.1999,-5.2075,-5.2242,0,0,0,-5.0413,-5.0668,-5.0543,-5.0833,-5.071,-5.1031,-5.0978,-5.1217,-5.1371,-5.1316,-5.1863,-5.187,-5.1996,-5.2065,-5.2231,-5.2383,-5.2446,0,0,-5.0733,-5.0706,-5.0877,-5.0774,-5.1117,-5.0984,-5.1349,-5.1491,-5.1506,-5.1749,-5.1762,-5.2013,-5.2074,-5.2239,-5.2791,-5.2841,0,0,0,-5.0977,-5.1101,-5.1191,-5.1339,-5.1455,-5.1561,-5.1647,-5.1699,-5.1906,-5.1631,-5.2116,-5.2152,-5.2249,-5.2322,-5.2365,-5.2449,-5.1903,-5.1902,-5.1901,-5.143,-5.1437,-5.172,-5.1765,-5.1908,-5.1995,-5.2112,-5.2197,-5.2161,-5.2275,-5.2349,-5.2683,-5.2769,-5.28,-5.2888,-5.2427,-5.2427,-5.2428,-5.2428,-5.1901,-5.2078,-5.2024,-5.228,-5.2286,-5.25,-5.2593,-5.256,-5.2761,-5.2628,-5.2714,-5.2571,-5.2855,-5.2932,-5.244,-5.2438,-5.2436,-5.2435,-5.2434,-5.2201,-5.2287,-5.2347,-5.2562,-5.2726,-5.276,-5.2956,-5.2952,-5.295,-5.3035,-5.3113,-5.3111,-5.3111,-5.3072,-5.3073,-5.3074,-5.3075,-5.3076,-5.3077,-5.249,-5.2553,-5.2719,-5.2863,-5.2957,-5.3081,-5.317,-5.3263,-5.3364,-5.3347,-5.3347,-5.3302,-5.288,-5.2776,-5.3095,-5.3092,-5.3089,-5.3088,-5.3086,-5.2972,-5.2862,-5.3119,-5.3215,-5.3383,-5.3547,-5.3539,-5.3729,-5.3804,-5.3901,-5.3836,-5.3524,-5.3496,-5.3462,-5.3377,-5.3832,-5.3832,-5.3832,-5.3832,-5.3228,-5.3212,-5.3475,-5.3628,-5.3776,-5.3795,-5.4086,-5.4156,-5.4212,-5.4259,-5.4191,-5.4076,-5.4042,-5.4034,-5.3988,-5.3908,-5.4489,-5.449,-5.449,-5.3526,-5.3525,-5.3774,-5.3828,-5.3959,-5.4071,-5.4345,-5.4521,-5.456,-5.4517,-5.4297,-5.4269,-5.4082,-5.4021,-5.3976,-5.3905,-5.3758,0,0]}]]